Location: Unspecified
(0.0000°N, 0.0000°E)
Time: 23:30:18
(UTC+00:00)

AO-7 - Visible Passes

Search period start: 19 January 2019 00:00
Search period end: 29 January 2019 00:00
Orbit: 1440 x 1458 km, 101.7° (Epoch: 19 January)

Date Brightness Start Highest point End Pass type
(mag) Time Alt. Az. Time Alt. Az. Time Alt. Az.
19 Jan ? 01:38:05 11° ESE 01:38:05 11° ESE 01:39:28 10° SE visible
19 Jan ? 03:33:00 37° SSW 03:33:00 37° SSW 03:37:32 10° SSW visible
20 Jan ? 02:32:07 30° SE 02:32:07 30° SE 02:36:56 10° S visible
20 Jan ? 04:27:03 17° WSW 04:27:03 17° WSW 04:28:55 10° SW visible
21 Jan ? 03:26:09 37° SSW 03:26:09 37° SSW 03:30:35 10° SSW visible
22 Jan ? 02:25:16 27° SE 02:25:16 27° SE 02:29:39 10° SSE visible
22 Jan ? 04:20:12 18° SW 04:20:12 18° SW 04:22:16 10° SW visible
23 Jan ? 03:19:19 35° S 03:19:19 35° S 03:23:36 10° SSW visible
24 Jan ? 02:18:26 23° SE 02:18:26 23° SE 02:22:20 10° SSE visible
24 Jan ? 04:13:22 19° SW 04:13:22 19° SW 04:15:34 10° SW visible
25 Jan ? 03:12:29 33° S 03:12:29 33° S 03:16:35 10° S visible
26 Jan ? 02:11:36 20° SE 02:11:36 20° SE 02:14:57 10° SSE visible
26 Jan ? 04:06:32 20° SW 04:06:32 20° SW 04:08:49 10° SW visible
27 Jan ? 03:05:39 31° S 03:05:39 31° S 03:09:32 10° S visible
28 Jan ? 02:04:46 17° SE 02:04:46 17° SE 02:07:29 10° SSE visible
28 Jan ? 03:59:42 21° SW 03:59:42 21° SW 04:02:02 10° SSW visible
